FW1369 Weather Reports


time (UTC)temp
F
wind
direction
speed
knots
gust
knots
rain 1hr
in
rain 24hr
in
rain mn
in
humidity
%
barometer
mb
20260505101048 62 349 0.9 7.8 0.00 0.00 0.00 70 1000.3
20260505100548 62 213 0.9 7.8 0.00 0.00 0.00 71 1000.3
20260505100048 62 182 0.9 7.0 0.00 0.00 0.00 71 1000.3
20260505095546 62 233 1.7 6.1 0.00 0.00 0.00 72 1000.2
20260505095046 61 202 0.0 4.3 0.00 0.00 0.00 72 1000.3
20260505094546 61 201 0.9 4.3 0.00 0.00 0.00 73 1000.2
20260505094046 61 153 0.9 6.1 0.00 0.00 0.00 74 1000.1
20260505093546 61 15 0.9 6.1 0.00 0.00 0.00 75 1000.0
20260505093046 60 293 0.9 6.1 0.00 0.00 0.00 75 1000.0
20260505092546 60 287 0.9 6.1 0.00 0.00 0.00 76 1000.1
20260505092044 59 311 1.7 5.2 0.00 0.00 0.00 77 1000.2
20260505091542 59 240 0.9 6.1 0.00 0.00 0.00 77 1000.2
20260505091042 59 46 1.7 10.4 0.00 0.00 0.00 77 1000.3
20260505090541 58 184 1.7 10.4 0.00 0.00 0.00 75 1000.3
20260505090041 59 211 0.9 5.2 0.00 0.00 0.00 74 1000.5
20260505085538 59 157 0.9 3.5 0.00 0.00 0.00 73 1000.6
20260505085038 59 332 0.0 0.0 0.00 0.00 0.00 72 1000.7
20260505084544 60 332 0.0 0.0 0.00 0.00 0.00 72 1000.8
20260505084036 60 332 0.0 0.0 0.00 0.00 0.00 72 1000.7
20260505083537 60 332 0.0 0.0 0.00 0.00 0.00 71 1000.8
20260505083036 60 332 0.0 0.0 0.00 0.00 0.00 71 1000.7
20260505082533 61 332 0.0 0.0 0.00 0.00 0.00 72 1000.8
20260505082033 61 332 0.0 0.0 0.00 0.00 0.00 72 1000.9
20260505081532 61 332 0.0 0.0 0.00 0.00 0.00 71 1000.9
20260505081032 61 286 0.0 0.0 0.00 0.00 0.00 71 1000.9
20260505080529 62 238 0.0 3.5 0.00 0.00 0.00 70 1000.8
20260505080029 62 179 0.0 4.3 0.00 0.00 0.00 70 1000.7
20260505075528 62 232 0.9 4.3 0.00 0.00 0.00 69 1000.7
20260505075032 62 202 0.0 3.5 0.00 0.00 0.00 69 1000.8
20260505074534 63 214 0.9 3.5 0.00 0.00 0.00 69 1000.7
20260505074027 63 205 0.9 3.5 0.00 0.00 0.00 69 1000.8
20260505073526 63 306 0.9 3.5 0.00 0.00 0.00 69 1000.9
20260505073037 63 274 0.0 2.6 0.00 0.00 0.00 68 1001.0
20260505072525 63 269 0.0 2.6 0.00 0.00 0.00 68 1001.1
20260505072027 63 298 0.0 3.5 0.00 0.00 0.00 68 1001.2
20260505071525 63 220 0.9 7.0 0.00 0.00 0.00 67 1001.3
20260505071026 63 286 0.9 7.8 0.00 0.00 0.00 67 1001.4
20260505070524 63 169 1.7 7.8 0.00 0.00 0.00 67 1001.6
20260505070036 63 313 1.7 13.0 0.00 0.00 0.00 67 1001.5
20260505065523 63 243 1.7 13.0 0.00 0.00 0.00 67 1001.6
20260505065024 63 231 1.7 7.0 0.00 0.00 0.00 67 1001.5
20260505064524 63 305 0.9 4.3 0.00 0.00 0.00 67 1001.5
20260505064024 63 258 1.7 4.3 0.00 0.00 0.00 67 1001.4
20260505063523 63 267 1.7 9.6 0.00 0.00 0.00 67 1001.3
20260505063023 63 284 1.7 10.4 0.00 0.00 0.00 67 1001.2
20260505062523 63 131 1.7 10.4 0.00 0.00 0.00 68 1001.2
20260505062022 63 201 1.7 6.1 0.00 0.00 0.00 68 1001.1
20260505061529 63 156 0.9 7.0 0.00 0.00 0.00 68 1001.3
20260505061023 62 299 0.9 7.0 0.00 0.00 0.00 68 1001.2
20260505060523 62 173 1.7 7.0 0.00 0.00 0.00 68 1001.2
20260505060022 62 284 0.9 7.0 0.00 0.00 0.00 68 1001.2
20260505055521 62 265 0.9 7.0 0.00 0.00 0.00 68 1001.2
20260505055021 62 263 0.9 7.0 0.00 0.00 0.00 68 1001.3
20260505054523 62 217 0.0 3.5 0.00 0.00 0.00 67 1001.3
20260505054022 62 216 0.0 4.3 0.00 0.00 0.00 67 1001.3
20260505053522 62 174 0.9 4.3 0.00 0.00 0.00 67 1001.3
20260505053020 63 12 0.9 4.3 0.00 0.00 0.00 67 1001.3
20260505052520 63 267 0.0 4.3 0.00 0.00 0.00 66 1001.4
20260505052020 63 275 0.9 7.0 0.00 0.00 0.00 66 1001.4
20260505051521 63 231 0.9 7.0 0.00 0.00 0.00 66 1001.4
20260505051020 63 169 0.9 6.1 0.00 0.00 0.00 66 1001.4
20260505050523 63 177 0.9 4.3 0.00 0.00 0.00 66 1001.3
20260505041524 62 335 0.9 4.3 0.00 0.00 0.00 62 1001.7
20260505041013 62 234 0.0 4.3 0.00 0.00 0.00 62 1001.7
20260505040512 62 315 0.0 4.3 0.00 0.00 0.00 62 1001.8
20260505040010 62 296 0.0 5.2 0.00 0.00 0.00 62 1001.8
20260505035514 62 154 0.0 5.2 0.00 0.00 0.00 62 1001.8
20260505035010 62 213 0.0 3.5 0.00 0.00 0.00 63 1001.7
20260505034519 62 301 0.9 3.5 0.00 0.00 0.00 63 1001.8
20260505034010 62 177 0.0 4.3 0.00 0.00 0.00 64 1001.7
20260505033510 61 288 0.9 7.8 0.00 0.00 0.00 64 1001.7
20260505033010 61 311 0.9 11.3 0.00 0.00 0.00 64 1001.7
20260505032510 60 360 0.9 11.3 0.00 0.00 0.00 65 1001.7
20260505032014 59 286 0.9 4.3 0.00 0.00 0.00 64 1002.0
20260505031520 58 171 0.9 4.3 0.00 0.00 0.00 63 1001.9
20260505031009 58 211 0.9 3.5 0.00 0.00 0.00 62 1001.8
20260505030508 57 211 0.0 3.5 0.00 0.00 0.00 62 1001.8
20260505030008 57 208 0.9 3.5 0.00 0.00 0.00 62 1001.6
20260505025508 57 284 0.0 1.7 0.00 0.00 0.00 62 1001.6
20260505025011 57 294 0.0 1.7 0.00 0.00 0.00 61 1001.7
20260505024509 57 294 0.0 2.6 0.00 0.00 0.00 61 1001.7
20260505024007 56 294 0.0 2.6 0.00 0.00 0.00 61 1001.6
20260505023507 56 295 0.0 1.7 0.00 0.00 0.00 61 1001.5
20260505023010 56 295 0.9 1.7 0.00 0.00 0.00 61 1001.5
20260505022508 56 296 0.0 1.7 0.00 0.00 0.00 61 1001.6
20260505022009 57 298 0.0 0.0 0.00 0.00 0.00 61 1001.7
20260505021509 57 298 0.0 0.0 0.00 0.00 0.00 62 1001.8
20260505021010 57 298 0.0 0.9 0.00 0.00 0.00 62 1001.9
20260505020506 57 298 0.0 0.9 0.00 0.00 0.00 62 1001.9
20260505020006 57 298 0.0 0.9 0.00 0.00 0.00 62 1001.9
20260505015506 57 298 0.0 0.9 0.00 0.00 0.00 62 1001.9
20260505015006 58 298 0.0 0.9 0.00 0.00 0.00 61 1002.0
20260505014505 58 298 0.0 0.9 0.00 0.00 0.00 61 1001.9
20260505014009 58 298 0.0 0.9 0.00 0.00 0.00 60 1001.9
20260505013509 58 298 0.0 0.9 0.00 0.00 0.00 60 1001.8
20260505013005 59 298 0.0 0.9 0.00 0.00 0.00 59 1001.8
20260505012505 59 298 0.0 0.9 0.00 0.00 0.00 59 1001.8
20260505012005 60 298 0.0 0.9 0.00 0.00 0.00 58 1001.8
20260505011504 60 298 0.0 0.0 0.00 0.00 0.00 57 1001.7
20260505011004 61 298 0.0 0.9 0.00 0.00 0.00 56 1001.8
20260505010504 61 298 0.0 0.9 0.00 0.00 0.00 55 1001.6
20260505010004 62 298 0.0 0.9 0.00 0.00 0.00 54 1001.6
20260505005504 62 298 0.0 0.9 0.00 0.00 0.00 53 1001.6
20260505005004 62 298 0.0 0.0 0.00 0.00 0.00 52 1001.6
20260505004504 63 298 0.0 0.0 0.00 0.00 0.00 51 1001.5
20260505004005 64 298 0.0 0.9 0.00 0.00 0.00 50 1001.5
20260505003506 64 298 0.0 0.9 0.00 0.00 0.00 49 1001.5
20260505003003 65 298 0.0 0.9 0.00 0.00 0.00 49 1001.5
20260505002503 65 298 0.0 0.9 0.00 0.00 0.00 48 1001.5
20260505002003 66 298 0.0 0.0 0.00 0.00 0.00 48 1001.5
20260505001503 66 298 0.0 0.0 0.00 0.00 0.00 47 1001.5
20260505001004 67 298 0.0 0.0 0.00 0.00 0.00 45 1001.5
20260505000501 67 298 0.0 0.0 0.00 0.00 0.00 44 1001.4
20260505000006 68 298 0.0 0.0 0.00 0.00 0.00 43 1001.4
20260504235505 68 298 0.0 0.0 0.00 0.00 0.00 42 1001.4
20260504235001 69 298 0.0 0.0 0.00 0.00 0.00 41 1001.4
20260504234501 69 298 0.0 0.0 0.00 0.00 0.00 41 1001.3
20260504234002 70 298 0.0 0.0 0.00 0.00 0.00 39 1001.3
20260504233504 70 298 0.0 0.0 0.00 0.00 0.00 38 1001.3
20260504233002 70 298 0.0 0.9 0.00 0.00 0.00 37 1001.3
20260504232501 71 298 0.0 0.9 0.00 0.00 0.00 36 1001.3
20260504232001 71 298 0.0 1.7 0.00 0.00 0.00 36 1001.3
20260504231609 71 298 0.0 1.7 0.00 0.00 0.00 36 1001.3
20260504231502 71 298 0.0 1.7 0.00 0.00 0.00 36 1001.3
20260504231100 72 298 0.0 2.6 0.00 0.00 0.00 35 1001.3
20260504230559 72 298 0.0 6.1 0.00 0.00 0.00 35 1001.3
20260504230100 72 298 0.0 6.1 0.00 0.00 0.00 34 1001.2
20260504225600 73 304 0.0 2.6 0.00 0.00 0.00 35 1001.2
20260504225100 73 304 0.0 2.6 0.00 0.00 0.00 34 1001.1
20260504224609 73 304 0.0 4.3 0.00 0.00 0.00 35 1001.1
20260504224059 74 304 0.9 4.3 0.00 0.00 0.00 34 1001.1
20260504223559 74 330 0.9 4.3 0.00 0.00 0.00 33 1001.2
20260504223134 74 349 0.0 5.2 0.00 0.00 0.00 33 1001.2
20260504222558 74 309 0.0 7.0 0.00 0.00 0.00 34 1001.2
20260504222058 74 309 1.7 7.8 0.00 0.00 0.00 33 1001.3
20260504221557 74 294 0.0 7.8 0.00 0.00 0.00 34 1001.2
20260504221100 75 269 1.7 7.8 0.00 0.00 0.00 33 1001.3
20260504220556 75 300 0.9 4.3 0.00 0.00 0.00 34 1001.2
20260504220056 75 185 0.9 6.1 0.00 0.00 0.00 33 1001.3
20260504215556 75 290 0.9 7.0 0.00 0.00 0.00 34 1001.3
20260504215054 75 282 1.7 7.8 0.00 0.00 0.00 32 1001.4
20260504214555 75 255 1.7 7.8 0.00 0.00 0.00 33 1001.5
20260504214054 75 311 0.9 6.1 0.00 0.00 0.00 35 1001.5
20260504213554 75 270 1.7 10.4 0.00 0.00 0.00 33 1001.6
20260504213103 75 279 2.6 10.4 0.00 0.00 0.00 34 1001.6
20260504212554 75 309 3.5 9.6 0.00 0.00 0.00 33 1001.6
20260504212053 75 306 1.7 9.6 0.00 0.00 0.00 35 1001.6
20260504211552 75 268 1.7 9.6 0.00 0.00 0.00 34 1001.7
20260504211052 75 306 2.6 9.6 0.00 0.00 0.00 35 1001.7
20260504210551 75 294 2.6 9.6 0.00 0.00 0.00 38 1001.7
20260504210057 75 276 1.7 9.6 0.00 0.00 0.00 35 1001.7
20260504205552 74 295 0.9 8.7 0.00 0.00 0.00 36 1001.8
20260504205050 74 309 1.7 8.7 0.00 0.00 0.00 36 1001.7
20260504204550 74 295 0.9 5.2 0.00 0.00 0.00 36 1001.8
20260504204049 74 271 1.7 7.8 0.00 0.00 0.00 37 1001.9
20260504203548 74 247 0.9 7.8 0.00 0.00 0.00 36 1001.9
20260504203104 74 196 1.7 7.8 0.00 0.00 0.00 37 1002.1
20260504202546 74 290 1.7 10.4 0.00 0.00 0.00 37 1002.1
20260504202048 74 294 2.6 10.4 0.00 0.00 0.00 36 1002.2
20260504201549 74 272 2.6 10.4 0.00 0.00 0.00 39 1002.3
20260504201044 74 286 2.6 11.3 0.00 0.00 0.00 38 1002.3
20260504200543 73 273 1.7 11.3 0.00 0.00 0.00 38 1002.4
20260504200043 74 263 2.6 11.3 0.00 0.00 0.00 37 1002.4
20260504195542 73 140 0.9 7.8 0.00 0.00 0.00 39 1002.5
20260504195041 73 300 0.9 13.0 0.00 0.00 0.00 38 1002.5
20260504194541 72 291 3.5 13.0 0.00 0.00 0.00 41 1002.6
20260504194043 72 252 1.7 9.6 0.00 0.00 0.00 38 1002.8
20260504193542 73 284 1.7 13.9 0.00 0.00 0.00 41 1002.8
20260504193039 73 298 1.7 13.9 0.00 0.00 0.00 40 1002.8
20260504192539 73 325 2.6 9.6 0.00 0.00 0.00 41 1002.9
20260504192038 73 297 2.6 8.7 0.00 0.00 0.00 41 1003.0
20260504191537 73 281 1.7 9.6 0.00 0.00 0.00 40 1002.9
20260504191038 73 116 2.6 9.6 0.00 0.00 0.00 41 1003.1
20260504190537 73 145 2.6 9.6 0.00 0.00 0.00 42 1003.0
20260504190039 72 344 1.7 12.2 0.00 0.00 0.00 43 1003.1
20260504185535 73 243 2.6 12.2 0.00 0.00 0.00 41 1003.3
20260504185036 73 305 3.5 13.0 0.00 0.00 0.00 40 1003.4
20260504184534 74 205 2.6 13.0 0.00 0.00 0.00 41 1003.3
20260504184034 74 290 1.7 8.7 0.00 0.00 0.00 44 1003.4
20260504183533 73 278 2.6 8.7 0.00 0.00 0.00 44 1003.5
20260504183032 73 327 0.9 10.4 0.00 0.00 0.00 42 1003.5
20260504182532 73 281 3.5 10.4 0.00 0.00 0.00 45 1003.7
20260504182031 72 321 1.7 11.3 0.00 0.00 0.00 46 1003.6
20260504181536 73 360 4.3 10.4 0.00 0.00 0.00 43 1003.6
20260504181033 72 205 3.5 7.8 0.00 0.00 0.00 46 1003.7
20260504180531 72 292 2.6 9.6 0.00 0.00 0.00 47 1003.8
20260504180028 72 224 3.5 11.3 0.00 0.00 0.00 45 1003.7
20260504175527 71 223 1.7 11.3 0.00 0.00 0.00 47 1003.8
20260504175026 72 313 4.3 11.3 0.00 0.00 0.00 45 1003.9
20260504174525 71 253 2.6 9.6 0.00 0.00 0.00 46 1004.0
20260504174024 71 309 2.6 12.2 0.00 0.00 0.00 47 1003.9
20260504173524 71 166 2.6 12.2 0.00 0.00 0.00 48 1004.0
20260504173021 70 328 2.6 14.8 0.00 0.00 0.00 48 1004.0
20260504172520 70 314 1.7 14.8 0.00 0.00 0.00 46 1004.1
20260504172020 70 249 4.3 13.9 0.00 0.00 0.00 48 1004.0
20260504171520 70 302 2.6 13.9 0.00 0.00 0.00 47 1004.1
20260504171020 70 254 1.7 11.3 0.00 0.00 0.00 46 1004.1
20260504170519 70 268 2.6 11.3 0.00 0.00 0.00 48 1004.1
20260504151100 64 287 0.9 10.4 0.00 0.00 0.00 53 1005.2
20260504150559 64 288 3.5 12.2 0.00 0.00 0.00 52 1005.3
20260504150113 64 317 1.7 12.2 0.00 0.00 0.00 50 1005.3
20260504141052 62 355 2.6 9.6 0.00 0.00 0.00 51 1005.4
20260504140551 62 299 2.6 9.6 0.00 0.00 0.00 51 1005.5
20260504130540 58 312 1.7 16.5 0.00 0.00 0.00 56 1005.9
20260504110524 50 289 0.0 5.2 0.00 0.00 0.00 60 1006.1